Location: Newark
(48.1500°N, 2.9667°W)
Time: 14:59:06
(UTC+00:00)

Transit 2A - Pass Details

Date: 26 January 2020
Orbit: 600 x 959 km, 66.7° (Epoch: 22 February)

Event Time Altitude Azimuth Distance (km) Brightness Sun altitude
Rises 20:40:46 0° 231° (SW) 2,876 9.4 -36.4°
Enters shadow 20:42:40 - 236° (SW) 2,122 8.7 -36.7°
Reaches altitude 10° 20:43:06 10° 237° (WSW) 1,954 - -36.7°
Maximum altitude 20:47:17 45° 311° (NW) 822 - -37.4°
Drops below altitude 10° 20:51:30 10° 25° (NNE) 1,965 - -38.1°
Sets 20:53:52 0° 32° (NNE) 2,895 - -38.5°
